This demonstration page uses our WeatherBlox Daily Observations layout. Learn more.

Left ArrowRight Arrow

Hourly Observations for September 21, 2020

Temp ( °F °C ) Dew Point ( °F °C ) Humidity (%) Winds ( mph kmh ) Pressure ( in mb ) Visibility ( mi km ) Precip ( " mm )
12:52 am 00:52 Mostly Cloudy 59 15 51 10.6 75 75 SSE 10 17 30.17 1022 10 16 0.00 0.00
1:52 am 01:52 Mostly Cloudy 60 15.6 52 11.1 75 75 SSE 12 19 30.16 1021 10 16 0.00 0.00
2:52 am 02:52 Mostly Cloudy 58 14.4 52 11.1 81 81 SSE 10 17 30.17 1022 10 16 0.00 0.00
3:52 am 03:52 Mostly Cloudy 58 14.4 52 11.1 81 81 SSE 10 17 30.17 1022 10 16 0.00 0.00
4:52 am 04:52 Mostly Cloudy 58 14.4 52 11.1 81 81 S 13 20 30.17 1022 10 16 0.00 0.00
5:52 am 05:52 Partly Cloudy 57 13.9 52 11.1 83 83 SSE 14 22 30.17 1022 10 16 0.00 0.00
6:52 am 06:52 Mostly Clear 57 13.9 52 11.1 83 83 SSE 14 22 30.18 1022 10 16 0.00 0.00
7:52 am 07:52 Partly Cloudy 57 13.9 53 11.7 87 87 SSE 10 17 30.20 1023 10 16 0.00 0.00
8:52 am 08:52 Partly Cloudy 59 15 54 12.2 83 83 SSE 13 20 30.19 1023 10 16 0.00 0.00
9:52 am 09:52 Mostly Cloudy 64 17.8 56 13.3 75 75 SSE 12 19 30.20 1023 10 16 0.00 0.00
10:52 am 10:52 Mostly Cloudy 68 20 58 14.4 70 70 S 14 22 30.19 1022 10 16 0.00 0.00
11:52 am 11:52 Mostly Cloudy 73 22.8 58 14.4 59 59 SSW 14 22 30.19 1022 10 16 0.00 0.00
12:52 pm 12:52 Mostly Cloudy 75 23.9 59 15 58 58 SSW 10 17 30.18 1022 10 16 0.00 0.00
1:52 pm 13:52 Mostly Cloudy 77 25 59 15 54 54 S 12 19 30.16 1021 10 16 0.00 0.00
2:52 pm 14:52 Mostly Cloudy 80 26.7 58 14.4 47 47 S 8 13 30.13 1020 10 16 0.00 0.00
3:52 pm 15:52 Mostly Cloudy 82 27.8 57 13.9 42 42 SSE 14 22 30.10 1019 10 16 0.00 0.00
4:52 pm 16:52 Partly Cloudy 81 27.2 58 14.4 45 45 SSE 16 26 30.08 1019 10 16 0.00 0.00
5:52 pm 17:52 Mostly Cloudy 81 27.2 57 13.9 44 44 SSE 14 22 30.09 1019 10 16 0.00 0.00
6:52 pm 18:52 Partly Cloudy 78 25.6 57 13.9 48 48 SSE 16 26 30.08 1019 10 16 0.00 0.00
7:52 pm 19:52 Partly Cloudy 76 24.4 57 13.9 52 52 S 16 26 30.08 1019 10 16 0.00 0.00
8:52 pm 20:52 Partly Cloudy 73 22.8 57 13.9 57 57 S 12 19 30.10 1019 10 16 0.00 0.00
9:52 pm 21:52 Partly Cloudy 70 21.1 57 13.9 64 64 SSE 16 26 30.11 1020 10 16 0.00 0.00
10:52 pm 22:52 Mostly Clear 69 20.6 58 14.4 68 68 S 14 22 30.11 1020 10 16 0.00 0.00
11:52 pm 23:52 Mostly Clear 66 18.9 58 14.4 75 75 SSE 9 15 30.11 1020 10 16 0.00 0.00

Powered by AerisWeather